Location: Hancock Field Station
(44.9202°N, 120.4259°W)
Time: 11:01:00
(UTC-07:00)

Nadezhda 4 Rocket - Visible Passes

Search period start: 20 September 2014 00:00
Search period end: 30 September 2014 00:00
Orbit: 949 x 993 km, 82.9° (Epoch: 18 September)

Date Brightness Start Highest point End Pass type
(mag) Time Alt. Az. Time Alt. Az. Time Alt. Az.
20 Sep 6.6 00:46:33 10° WNW 00:46:33 10° WNW 00:47:17 10° NW visible
20 Sep 5.2 21:41:18 28° NE 21:41:18 28° NE 21:44:33 10° NNE visible
20 Sep 5.5 23:25:51 32° NW 23:25:51 32° NW 23:29:54 10° N visible
21 Sep 4.8 22:05:08 40° NNE 22:05:08 40° NNE 22:09:03 10° NNE visible
21 Sep 6.0 23:49:41 21° NW 23:49:41 21° NW 23:53:27 10° NNW visible
22 Sep 5.6 20:44:23 16° ENE 20:44:23 16° ENE 20:46:26 10° NE visible
22 Sep 4.7 22:28:56 48° N 22:28:56 48° N 22:33:18 10° N visible
23 Sep 6.5 00:13:29 13° WNW 00:13:29 13° WNW 00:16:12 10° NW visible
23 Sep 5.1 21:08:09 26° ENE 21:08:09 26° ENE 21:11:36 10° NNE visible
23 Sep 5.1 22:52:42 40° NW 22:52:42 40° NW 22:57:18 10° N visible
24 Sep 4.6 21:31:53 42° NE 21:31:53 42° NE 21:36:14 10° NNE visible
24 Sep 5.7 23:16:26 26° WNW 23:16:26 26° WNW 23:21:01 10° NNW visible
25 Sep 5.6 20:11:01 13° ENE 20:11:01 13° ENE 20:12:58 10° NE visible
25 Sep 4.2 21:55:33 61° N 21:55:33 61° N 22:00:34 10° N visible
25 Sep 6.3 23:40:06 16° WNW 23:40:31 16° WNW 23:44:12 10° NNW visible
26 Sep 5.1 20:34:37 24° ENE 20:34:37 24° ENE 20:38:34 10° NNE visible
26 Sep 4.6 22:19:10 53° WNW 22:19:10 53° WNW 22:24:40 10° N visible
27 Sep 4.4 20:58:09 41° ENE 20:58:09 41° ENE 21:03:22 10° NNE visible
27 Sep 5.4 22:42:41 32° WNW 22:43:00 33° WNW 22:48:30 10° N visible
28 Sep 5.7 19:37:02 11° E 19:37:31 11° ENE 19:38:45 10° ENE visible
28 Sep 3.8 21:21:33 72° ESE 21:21:39 72° E 21:27:48 10° NNE visible
28 Sep 6.1 23:06:05 18° W 23:07:35 20° WNW 23:11:56 10° NNW visible
29 Sep 7.2 06:27:26 10° NE 06:28:13 10° ENE 06:28:59 10° ENE visible
29 Sep 5.1 20:00:16 19° E 20:01:11 20° E 20:05:25 10° NE visible
29 Sep 4.2 21:44:47 57° SW 21:45:50 68° W 21:51:59 10° N visible
29 Sep 6.7 23:30:36 10° WNW 23:32:22 11° WNW 23:34:09 10° NW visible
